Regional Weather Roundup
Issued by NWS

Home | Current Version | Previous Version | Graphics & Text | Print | Product List | Glossary On
Versions: 1 2 3 4 5 6 7 8 9 10 11 12 13 14 15 16 17 18 19 20 21 22 23 24 25 26 27 28 29 30 31 32 33 34 35 36 37 38 39 40 41 42 43 44 45 46 47 48 49 50
744
ASUS44 KLIX 300810
RWRLA
LOUISIANA WEATHER ROUNDUP
NATIONAL WEATHER SERVICE NEW ORLEANS LA
300 AM CDT WED JUL 30 2014

NOTE: "FAIR" INDICATES FEW OR NO CLOUDS BELOW 12,000 FEET WITH NO
      SIGNIFICANT WEATHER AND/OR OBSTRUCTIONS TO VISIBILITY.
      SKY/WX - SKY CONDITION AND SIGNIFICANT WEATHER.
      TMP - AIR TEMPERATURE.    DP   - DEWPOINT TEMPERATURE.
      RH  - RELATIVE HUMIDITY.  PRES - PRESSURE.
      HX  - HEAT INDEX.         WCI  - WIND CHILL INDEX.

*  THESE STATIONS ARE NOT NWS OR FAA STATIONS AND ARE NOT UNDER
   NWS QUALITY CONTROL.

LAZ040-048-061>063-065-066-069-300900-
SOUTHEAST LOUISIANA

CITY           SKY/WX    TMP DP  RH WIND       PRES   REMARKS
N.O. AUDUBON     N/A     78  67  67 MISG        N/A
N.O. INTL ARPT PTCLDY    79  64  60 NE13      30.03F
N.O. LAKEFRONT CLEAR     79  67  66 NE18      30.03F
N.O. DOWNTOWN* FAIR      79  63  57 NE8       30.03S
SLIDELL        CLEAR     70  66  87 N3        30.03F
BATON ROUGE    CLEAR     71  65  81 NE6       30.05F
BOOTHVILLE     CLEAR     80  72  76 VRB7      30.02S
BELLE CHASSE   CLEAR     75  65  70 NE7       30.03S
BOGALUSA*      FAIR      67  62  84 N3        30.06F
GALLIANO*      NOT AVBL
NEW ROADS*     PTSUNNY   71  64  79 NE5       30.06S
GONZALES*      FAIR      71  70  98 CALM      30.04S
HAMMOND*       CLEAR     72  63  73 N5        30.06F
HOUMA*         CLEAR     74  67  77 N3        30.03S
PORT FOURCHON* SUNNY     81  70  69 N6        30.03S

$$

LAZ041-044-053-054-300900-
SOUTHWEST LOUISIANA

CITY           SKY/WX    TMP DP  RH WIND       PRES   REMARKS
LAKE CHARLES   CLEAR     73  70  90 CALM      30.04S
LAFAYETTE      CLEAR     73  69  87 CALM      30.06S
PATTERSON      CLEAR     73  70  88 NE6       30.07S
SALT POINT       N/A     77  71  82 CALM      30.03S
NEW IBERIA     CLEAR     76  69  79 NE9       30.06R
CHENAULT AIRPK MOCLDY    75  69  81 NE6       30.06S

$$

LAZ027-028-300900-
CENTRAL LOUISIANA

CITY           SKY/WX    TMP DP  RH WIND       PRES   REMARKS
FORT POLK      CLEAR     73  67  81 E5        30.07F
ALEXANDRIA INT CLEAR     73  65  75 CALM      30.06S
ALEXANDRIA     CLEAR     69  65  86 CALM      30.08S

$$

LAZ001-002-300900-
NORTHWEST LOUISIANA

CITY           SKY/WX    TMP DP  RH WIND       PRES   REMARKS
SHREVEPORT     PTCLDY    73  64  73 SE5       30.06F
BARKSDALE AFB  CLEAR     69  64  84 SE5       30.07S
DTN SHREVEPORT CLEAR     73  62  68 SE6       30.07S

$$

LAZ014-016-300900-
NORTHEAST LOUISIANA

CITY           SKY/WX    TMP DP  RH WIND       PRES   REMARKS
MONROE         CLEAR     65  61  87 CALM      30.09S
TALLULAH       CLEAR     61  59  93 CALM      30.09R

$$




USA.gov is the U.S. government's official web portal to all federal, state and local government web resources and services.